Location: Alpha Ridge Park
(39.3209°N, 76.9128°W)
Time: 23:56:27
(UTC-04:00)

Vanguard 2 Rocket - Pass Details

Date: 30 May 2019
Orbit: 554 x 3326 km, 32.9° (Epoch: 17 June)

Event Time Altitude Azimuth Distance (km) Brightness Sun altitude
Rises 09:30:45 0° 277° (W) 7,020 11.0 41.4°
Reaches altitude 10° 09:36:04 10° 273° (W) 5,714 10.6 42.4°
Maximum altitude 09:51:12 50° 206° (SSW) 2,429 9.5 45.3°
Drops below altitude 10° 10:00:06 10° 133° (SE) 3,458 10.6 47.0°
Sets 10:02:32 0° 128° (SE) 4,143 10.9 47.5°
